CAPE
122 50 73 152 144 90 19 3 0 0 0 0 0 0 0 0 0 0 0 0 0 0
185 120 230 203 97 45 8 0 0 0 0 0 0 0 0 0 0 0 0 0 0 0
446 358 226 191 133 65 8 0 0 0 0 0 0 0 0 0 0 0 0 0 0 0
590 422 417 365 100 71 5 0 0 0 0 0 0 0 0 0 0 0 0 0 0 0
725 508 388 363 134 7 0 0 0 0 0 0 0 0 0 0 0 0 0 0 0 0
637 532 172 0 0 0 0 0 0 0 0 0 0 0 0 0 0 0 0 0 0 0
367 247 61 10 0 0 0 0 0 0 0 0 0 0 0 0 0 0 0 0 0 0
30 0 0 1 0 0 0 1 0 0 0 0 0 0 0 0 0 0 0 0 0 0
1 1 1 3 3 3 2 0 0 0 0 0 0 0 0 0 0 0 0 0 0 0
3 2 2 2 2 1 1 0 0 0 0 0 0 0 0 0 0 0 0 0 0 0
1 1 2 1 2 1 0 0 0 0 0 0 0 0 0 0 0 0 0 0 0 0
1 1 1 1 0 0 0 0 0 0 0 0 0 0 0 0 0 0 0 0 0 0
0 0 0 0 0 0 0 0 0 0 0 0 0 0 0 0 0 0 0 0 0 0
0 0 0 0 0 0 0 0 0 0 0 0 0 0 0 0 0 0 0 0 0 0
CIN
-86 -115 -115 -130 -159 -163 -184 -74 -0 -0 -0 -0 -0 -0 -0 -0 -0 -0 -0 -0 -0 -0
-102 -83 -90 -138 -173 -196 -258 -0 -0 -0 -0 -0 -0 -0 -0 -0 -0 -0 -0 -0 -0 -0
-89 -81 -80 -117 -148 -219 -274 -0 -0 -0 -0 -0 -0 -0 -0 -0 -0 -0 -0 -0 -0 -0
-121 -94 -69 -89 -181 -207 -290 -0 -0 -0 -0 -0 -0 -0 -0 -0 -0 -0 -0 -0 -0 -0
-112 -107 -75 -78 -147 -299 -0 -0 -0 -0 -0 -0 -0 -0 -0 -0 -0 -0 -0 -0 -0 -0
-78 -120 -183 -30 -0 -0 -0 -0 -0 -0 -0 -0 -0 -0 -0 -0 -0 -0 -0 -0 -0 -0
-168 -183 -248 -150 -0 -0 -0 -0 -0 -0 -0 -0 -0 -0 -0 -0 -0 -0 -0 -0 -0 -0
-337 -0 -0 -0 -0 -0 -0 -0 -0 -0 -0 -0 -0 -0 -0 -0 -0 -0 -0 -0 -0 -0
-0 -0 -0 -0 -0 -0 -0 -0 -0 -0 -0 -0 -0 -0 -0 -0 -0 -0 -0 -0 -0 -0
-0 -0 -0 -0 -0 -0 -0 -0 -0 -0 -0 -0 -0 -0 -0 -0 -0 -0 -0 -0 -0 -0
-0 -0 -0 -0 -0 -0 -0 -0 -0 -0 -0 -0 -0 -0 -0 -0 -0 -0 -0 -0 -0 -0
-0 -0 -0 -0 -0 -0 -0 -0 -0 -0 -0 -0 -0 -0 -0 -0 -0 -0 -0 -0 -0 -0
-0 -0 -0 -0 -0 -0 -0 -0 -0 -0 -0 -0 -0 -0 -0 -0 -0 -0 -0 -0 -0 -0
-0 -0 -0 -0 -0 -0 -0 -0 -0 -0 -0 -0 -0 -0 -0 -0 -0 -0 -0 -0 -0 -0
Wind_Speed
15 13 12 10 8 10 9 8 6 7 8 8 8 9 9 8 10 11 12 15 16 17
17 12 9 8 8 7 7 6 6 7 7 8 8 9 12 14 17 15 16 12 16 20
15 12 10 8 9 9 8 6 5 6 7 8 10 9 13 12 14 11 15 16 17 16
14 13 11 10 8 8 7 6 7 6 5 5 5 4 7 8 9 13 16 16 16 18
13 13 13 12 9 7 7 6 6 5 4 4 4 4 7 8 12 14 15 16 17 20
12 13 13 11 12 8 6 6 5 5 5 5 5 7 9 10 13 14 15 16 19 21
10 11 10 9 7 7 6 5 5 5 8 6 7 9 9 12 13 14 16 18 19 21
6 8 8 7 7 6 6 5 7 8 7 8 8 11 10 12 15 15 16 19 21 23
6 6 6 7 8 7 7 6 6 6 7 9 12 13 12 14 14 16 20 23 25 27
7 7 8 9 7 6 5 5 6 8 9 12 11 13 12 15 18 21 23 24 26 28
8 9 9 7 6 7 5 6 8 9 9 11 14 12 15 18 20 22 24 25 27 30
7 6 6 7 6 5 6 8 9 9 11 13 15 15 18 19 22 24 26 28 30 32
6 6 5 4 4 5 6 8 11 14 14 14 15 17 19 20 22 27 29 30 31 32
5 4 3 4 5 7 10 10 13 15 16 15 17 19 20 23 26 28 31 33 34 34
Wind_Direction
180 183 186 191 194 192 196 200 231 232 255 261 261 273 272 271 273 297 300 311 315 319
195 201 206 209 213 213 223 235 256 253 261 285 282 288 291 278 293 309 309 318 316 317
208 213 219 222 218 234 227 248 285 282 294 311 316 325 309 310 304 320 317 317 314 316
217 229 232 235 239 229 254 276 305 306 302 309 314 290 316 313 305 311 316 311 308 311
223 238 248 247 254 251 272 281 294 295 286 295 300 283 310 308 314 314 316 318 313 314
245 250 269 272 294 279 278 289 299 297 289 287 292 303 306 308 315 315 319 317 318 320
252 255 263 281 265 272 279 279 277 289 290 283 302 311 307 316 315 315 319 321 325 326
269 286 288 276 277 270 263 280 279 301 304 299 315 318 312 318 320 321 325 327 327 327
309 301 293 293 292 281 289 293 299 307 311 313 318 323 315 323 323 324 324 323 324 325
318 313 307 306 296 283 289 294 302 309 313 320 317 325 321 326 325 323 324 325 324 324
314 309 309 302 292 291 288 302 309 313 314 320 320 322 325 327 326 325 326 327 326 325
314 310 305 296 289 288 297 310 314 316 317 321 325 328 328 327 326 325 324 325 326 325
330 321 317 312 306 308 313 315 324 327 324 326 326 330 329 328 326 323 322 324 325 327
343 341 335 331 323 317 319 322 324 325 326 325 326 328 330 328 326 324 323 324 325 327